Willard, MO

1:46 PM CST on January 23, 2017 (GMT -0600)
Springfield-Branson Regional

Weather History for KSGF - October, 2014

Change the Weather History Date:

Monday, October 27, 2014

  Actual Average Record
Temperature  
Mean Temperature 70 °F 54 °F  
Max Temperature 77 °F 65 °F 84 °F (1950)
Min Temperature 62 °F 43 °F 23 °F (1957)
Degree Days  
Heating Degree Days 0 11  
Month to date heating degree days 141 205  
Since 1 July heating degree days 172 260  
Cooling Degree Days 5 0  
Month to date cooling degree days 45 27  
Year to date cooling degree days 1470 1386  
Growing Degree Days 20 (Base 50)    
Moisture  
Dew Point 57 °F    
Average Humidity 66    
Maximum Humidity 81    
Minimum Humidity 50    
Precipitation  
Precipitation 0.01 in 0.11 in 2.76 in (1996)
Month to date precipitation 7.25 3.12  
Year to date precipitation 34.22 37.84  
Snow  
Snow 0.00 in - - ()
Month to date snowfall 0.0  
Since 1 July snowfall 0.0  
Since 1 September snowfall 0.0  
Snow Depth 0.00 in    
Sea Level Pressure  
Sea Level Pressure 29.73 in    
Wind  
Wind Speed 14 mph (South)    
Max Wind Speed 25 mph    
Max Gust Speed 33 mph    
Visibility 10 miles    
Events      
T = Trace of Precipitation, MM = Missing Value Source: NWS Daily Summary

Daily Weather History Graph

Daily Weather History Graph

Search for Another Location

Airport or City:

Trip Planner

Search our weather history database for the weather conditions in past years. The results will help you decide how hot, cold, wet, or windy it might be!

Date:

Astronomy

Oct. 27, 2014 Rise Set
Actual Time 7:33 AM CDT 6:21 PM CDT
Civil Twilight 7:06 AM CDT 6:47 PM CDT
Nautical Twilight 6:35 AM CDT 7:18 PM CDT
Astronomical Twilight 6:05 AM CDT 7:48 PM CDT
Moon 11:06 AM CDT (10/27) 9:30 PM CDT (10/27)
Length of Visible Light 11h 41m
Length of Day
10h 48m
Waxing Crescent, 15% of the Moon is Illuminated
Oct 27
Waxing Crescent
Oct 30
First Quarter
Nov 6
Full
Nov 14
Last Quarter
Nov 22
New

Hourly Weather History & Observations

Time (CDT) Temp. Dew Point Humidity Pressure Visibility Wind Dir Wind Speed Gust Speed Precip Events Conditions
12:52 AM 66.0 °F 59.0 °F 78% 29.74 in 10.0 mi South 17.3 mph - N/A   Clear
1:52 AM 66.0 °F 57.9 °F 75% 29.73 in 10.0 mi South 13.8 mph - N/A   Clear
2:52 AM 64.0 °F 57.0 °F 78% 29.74 in 10.0 mi South 10.4 mph - N/A   Clear
3:52 AM 64.0 °F 57.0 °F 78% 29.73 in 10.0 mi South 10.4 mph - N/A   Clear
4:52 AM 64.0 °F 55.9 °F 75% 29.72 in 10.0 mi South 11.5 mph - N/A   Clear
5:52 AM 64.9 °F 55.0 °F 70% 29.72 in 10.0 mi South 12.7 mph - N/A   Clear
6:52 AM 64.9 °F 54.0 °F 68% 29.71 in 10.0 mi South 15.0 mph - N/A   Clear
7:52 AM 66.0 °F 54.0 °F 65% 29.71 in 10.0 mi South 15.0 mph - N/A   Clear
8:52 AM 69.8 °F 55.4 °F 60% 29.74 in 10.0 mi South 19.6 mph 26.5 mph N/A   Clear
9:52 AM 70.0 °F 55.0 °F 59% 29.71 in 10.0 mi South 18.4 mph 25.3 mph N/A   Clear
10:52 AM 72.0 °F 55.0 °F 55% 29.72 in 10.0 mi South 20.7 mph 26.5 mph N/A   Clear
11:52 AM 73.4 °F 57.2 °F 57% 29.75 in 10.0 mi South 18.4 mph 27.6 mph N/A   Clear
12:52 PM 75.9 °F 55.9 °F 50% 29.70 in 10.0 mi SSW 19.6 mph 27.6 mph N/A   Clear
1:52 PM 75.9 °F 55.9 °F 50% 29.68 in 10.0 mi South 24.2 mph 29.9 mph N/A   Clear
2:52 PM 75.9 °F 55.9 °F 50% 29.69 in 10.0 mi South 21.9 mph 29.9 mph N/A   Clear
3:52 PM 75.9 °F 55.9 °F 50% 29.68 in 10.0 mi South 17.3 mph 28.8 mph N/A   Clear
4:52 PM 75.0 °F 55.9 °F 51% 29.68 in 10.0 mi South 19.6 mph 26.5 mph N/A   Clear
5:52 PM 72.0 °F 57.0 °F 59% 29.70 in 10.0 mi SSW 15.0 mph - N/A   Clear
6:52 PM 69.8 °F 57.2 °F 64% 29.76 in 10.0 mi South 9.2 mph - N/A   Clear
7:52 PM 69.1 °F 57.9 °F 68% 29.77 in 10.0 mi South 9.2 mph - N/A   Mostly Cloudy
8:52 PM 70.0 °F 59.0 °F 68% 29.78 in 10.0 mi South 10.4 mph - N/A   Overcast
9:52 PM 69.1 °F 59.0 °F 70% 29.79 in 10.0 mi South 9.2 mph - N/A   Overcast
10:52 PM 66.9 °F 60.1 °F 79% 29.80 in 10.0 mi SW 5.8 mph - 0.00 in   Overcast
11:52 PM 66.9 °F 61.0 °F 81% 29.81 in 10.0 mi SSW 6.9 mph - 0.00 in   Overcast